FW1564 Weather Reports


Display with metric or nautical units.
time (UTC)temp
F
wind
direction
speed
MPH
gust
MPH
rain 1hr
in
rain 24hr
in
rain mn
in
humidity
%
barometer
mb
20210806032031 65 203 0.0 5.0 0.00 0.00 0.00 91 1022.1
20210806030940 65 239 0.0 2.0 0.00 0.00 0.00 92 1022.2
20210806025938 65 345 0.0 5.0 0.00 0.00 0.00 92 1022.2
20210806024826 65 332 2.0 5.0 0.00 0.00 0.00 92 1022.3
20210806023730 65 339 3.0 5.0 0.00 0.00 0.00 92 1022.4
20210806022650 65 342 2.0 5.0 0.00 0.00 0.00 92 1022.4
20210806021630 65 338 3.0 8.0 0.00 0.00 0.00 92 1022.4
20210806020609 65 331 2.0 8.0 0.00 0.00 0.00 92 1022.5
20210806015508 65 332 3.0 5.0 0.00 0.00 0.00 92 1022.6
20210806014503 65 332 2.0 5.0 0.00 0.00 0.00 92 1022.6
20210806013402 66 331 4.0 5.0 0.00 0.00 0.00 93 1022.9
20210806012309 66 263 0.0 2.0 0.00 0.00 0.00 93 1023.1
20210806011211 66 300 0.0 2.0 0.00 0.00 0.00 94 1023.2
20210806010210 66 270 0.0 2.0 0.00 0.00 0.00 94 1023.3
20210806005210 66 224 0.0 2.0 0.00 0.00 0.00 94 1023.4
20210806004146 66 296 0.0 2.0 0.00 0.00 0.00 94 1023.5
20210806003137 66 310 0.0 2.0 0.00 0.00 0.00 93 1023.5
20210806002113 67 256 0.0 0.0 0.00 0.00 0.00 94 1023.6
20210806001112 67 263 0.0 0.0 0.00 0.00 0.00 94 1023.7
20210806000048 67 205 0.0 0.0 0.00 0.00 0.00 94 1024.0
20210805235021 67 201 0.0 0.0 0.00 0.00 0.00 94 1023.9
20210805234013 67 194 0.0 0.0 0.00 0.00 0.00 94 1024.0
20210805232946 67 202 0.0 0.0 0.00 0.00 0.00 94 1024.0
20210805231941 67 165 0.0 2.0 0.00 0.00 0.00 94 1023.9
20210805230911 67 203 0.0 2.0 0.00 0.00 0.00 94 1024.0
20210805225908 67 200 0.0 2.0 0.00 0.00 0.00 94 1023.9
20210805224906 67 201 0.0 0.0 0.00 0.00 0.00 94 1023.9
20210805223851 67 186 0.0 0.0 0.00 0.00 0.00 93 1023.9
20210805222843 67 203 0.0 2.0 0.00 0.00 0.00 92 1023.9
20210805221831 67 200 0.0 0.0 0.00 0.00 0.00 92 1023.9
20210805220807 67 209 0.0 0.0 0.00 0.00 0.00 92 1023.9
20210805215819 67 213 0.0 2.0 0.00 0.00 0.00 92 1023.9
20210805214803 67 220 0.0 5.0 0.00 0.00 0.00 92 1023.9
20210805213745 67 332 0.0 0.0 0.00 0.00 0.00 92 1023.7
20210805212737 67 308 0.0 0.0 0.00 0.00 0.00 92 1023.8
20210805211738 67 230 0.0 0.0 0.00 0.00 0.00 92 1023.7
20210805210736 67 354 0.0 0.0 0.00 0.00 0.00 92 1023.7
20210805205728 67 329 0.0 0.0 0.00 0.00 0.00 93 1023.9
20210805204709 67 5 0.0 0.0 0.00 0.00 0.00 93 1023.8
20210805203638 67 316 0.0 0.0 0.00 0.00 0.00 94 1023.7
20210805202646 67 217 0.0 0.0 0.00 0.00 0.00 94 1023.7
20210805201638 67 244 0.0 0.0 0.00 0.00 0.00 95 1023.8
20210805200611 67 182 0.0 0.0 0.00 0.00 0.00 95 1023.8
20210805195536 67 162 0.0 0.0 0.00 0.00 0.00 95 1023.7
20210805194528 67 192 0.0 2.0 0.00 0.00 0.00 96 1023.7
20210805193505 67 108 0.0 2.0 0.00 0.00 0.00 96 1023.6
20210805192442 67 130 0.0 2.0 0.00 0.00 0.00 96 1023.6
20210805191442 67 158 2.0 5.0 0.00 0.00 0.00 96 1023.5
20210805190438 66 141 2.0 5.0 0.00 0.00 0.00 96 1023.5
20210805185435 66 143 0.0 5.0 0.00 0.00 0.00 96 1023.5
20210805184436 66 164 1.0 2.0 0.00 0.00 0.00 96 1023.4
20210805183425 67 206 0.0 5.0 0.00 0.00 0.00 97 1023.5
20210805182420 67 191 0.0 2.0 0.00 0.00 0.00 97 1023.5
20210805181346 67 155 2.0 5.0 0.00 0.00 0.00 97 1023.6
20210805180335 67 151 2.0 5.0 0.00 0.00 0.00 97 1023.7
20210805175340 67 178 0.0 5.0 0.00 0.00 0.00 97 1023.7
20210805174337 67 190 1.0 5.0 0.00 0.00 0.00 97 1024.0
20210805173337 67 158 2.0 8.0 0.00 0.00 0.00 97 1023.9
20210805172334 67 185 3.0 10.0 0.00 0.00 0.00 96 1024.0
20210805171314 67 126 5.0 8.0 0.00 0.00 0.00 96 1024.3
20210805170308 68 155 6.0 8.0 0.00 0.00 0.00 96 1024.2
20210805165257 68 157 3.0 8.0 0.00 0.00 0.00 95 1024.2
20210805164251 68 29 0.0 8.0 0.00 0.00 0.00 95 1024.3
20210805163242 68 146 3.0 5.0 0.00 0.00 0.00 94 1024.3
20210805162238 68 199 0.0 8.0 0.00 0.00 0.00 94 1024.3
20210805161238 68 159 6.0 8.0 0.00 0.00 0.00 94 1024.4
20210805160235 68 144 1.0 8.0 0.00 0.00 0.00 93 1024.4
20210805155209 68 167 4.0 8.0 0.00 0.00 0.00 92 1024.3
20210805154204 68 105 3.0 10.0 0.00 0.00 0.00 92 1024.5
20210805153206 69 164 2.0 8.0 0.00 0.00 0.00 91 1024.6
20210805152147 69 178 5.0 10.0 0.00 0.00 0.00 90 1024.5
20210805151136 69 121 4.0 13.0 0.00 0.00 0.00 89 1024.6
20210805150139 69 174 3.0 10.0 0.00 0.00 0.00 88 1024.7
20210805145135 69 162 4.0 10.0 0.00 0.00 0.00 88 1024.9
20210805144120 70 168 8.0 10.0 0.00 0.00 0.00 87 1024.9
20210805143123 70 166 4.0 10.0 0.00 0.00 0.00 87 1024.9
20210805142045 70 110 3.0 10.0 0.00 0.00 0.00 87 1024.9
20210805141041 70 206 4.0 13.0 0.00 0.00 0.00 88 1025.0
20210805140005 70 146 3.0 10.0 0.00 0.00 0.00 86 1025.0
20210805134947 70 201 6.0 10.0 0.00 0.00 0.00 88 1025.2
20210805133936 70 123 4.0 10.0 0.00 0.00 0.00 87 1025.3
20210805132929 71 171 9.0 10.0 0.00 0.00 0.00 87 1025.4
20210805131924 71 201 0.0 10.0 0.00 0.00 0.00 86 1025.3
20210805130914 72 137 7.0 13.0 0.00 0.00 0.00 84 1025.3
20210805125854 72 121 8.0 10.0 0.00 0.00 0.00 84 1025.3
20210805124845 72 170 5.0 10.0 0.00 0.00 0.00 84 1025.5
20210805123835 72 133 8.0 10.0 0.00 0.00 0.00 84 1025.3
20210805122835 71 143 9.0 10.0 0.00 0.00 0.00 82 1025.3
20210805121832 71 107 4.0 8.0 0.00 0.00 0.00 85 1025.4
20210805120809 71 201 4.0 13.0 0.00 0.00 0.00 86 1025.5
20210805115747 71 186 3.0 10.0 0.00 0.00 0.00 87 1025.3
20210805114737 71 202 2.0 10.0 0.00 0.00 0.00 86 1025.5
20210805113736 71 131 6.0 10.0 0.00 0.00 0.00 85 1025.4
20210805112737 72 126 7.0 10.0 0.00 0.00 0.00 85 1025.5
20210805111731 72 85 3.0 8.0 0.00 0.00 0.00 83 1025.6
20210805110711 71 145 5.0 10.0 0.00 0.00 0.00 83 1025.6
20210805105636 71 183 2.0 8.0 0.00 0.00 0.00 83 1025.6
20210805104624 71 207 0.0 5.0 0.00 0.00 0.00 84 1025.5
20210805103610 72 217 1.0 8.0 0.00 0.00 0.00 85 1025.5
20210805102603 72 199 2.0 10.0 0.00 0.00 0.00 84 1025.6
20210805101556 73 198 8.0 10.0 0.00 0.00 0.00 83 1025.5
20210805100550 73 98 0.0 8.0 0.00 0.00 0.00 80 1025.7
20210805095542 72 119 0.0 8.0 0.00 0.00 0.00 78 1025.7
20210805094541 71 214 1.0 10.0 0.00 0.00 0.00 77 1025.6
20210805093535 71 214 2.0 8.0 0.00 0.00 0.00 79 1025.6
20210805092539 70 165 5.0 8.0 0.00 0.00 0.00 81 1025.7
20210805091537 69 196 2.0 8.0 0.00 0.00 0.00 83 1025.6
20210805090526 69 161 3.0 5.0 0.00 0.00 0.00 80 1025.6
20210805085508 68 187 3.0 5.0 0.00 0.00 0.00 86 1025.5
20210805084456 67 211 0.0 2.0 0.00 0.00 0.00 87 1025.6
20210805083449 66 113 2.0 5.0 0.00 0.00 0.00 87 1025.7
20210805082441 66 86 0.0 5.0 0.00 0.00 0.00 89 1025.4
20210805081449 65 77 0.0 5.0 0.00 0.00 0.00 91 1025.4
20210805080442 64 129 0.0 2.0 0.00 0.00 0.00 91 1025.2
20210805075440 64 340 2.0 5.0 0.00 0.00 0.00 91 1025.1
20210805074427 64 355 0.0 5.0 0.00 0.00 0.00 90 1025.2
20210805073420 63 339 3.0 5.0 0.00 0.00 0.00 90 1025.2
20210805072404 63 326 3.0 5.0 0.00 0.00 0.00 91 1024.9
20210805071416 63 358 4.0 5.0 0.00 0.00 0.00 91 1024.9
20210805070337 63 351 3.0 5.0 0.00 0.00 0.00 91 1024.9
20210805065337 63 344 2.0 5.0 0.00 0.00 0.00 91 1024.7
20210805064338 63 330 4.0 8.0 0.00 0.00 0.00 92 1024.6
20210805063337 63 355 4.0 8.0 0.00 0.00 0.00 92 1024.6
20210805062336 63 336 4.0 5.0 0.00 0.00 0.00 92 1024.5
20210805061336 63 344 2.0 5.0 0.00 0.00 0.00 91 1024.5
20210805060336 63 307 0.0 2.0 0.00 0.00 0.00 92 1024.4
20210805055338 63 317 3.0 5.0 0.00 0.00 0.00 92 1024.5
20210805054335 63 324 3.0 5.0 0.00 0.00 0.00 91 1024.5
20210805053314 63 331 3.0 5.0 0.00 0.00 0.00 90 1024.4
20210805052309 63 258 0.0 5.0 0.00 0.00 0.00 89 1024.4
20210805051242 63 330 4.0 5.0 0.00 0.00 0.00 89 1024.4
20210805050240 63 318 2.0 5.0 0.00 0.00 0.00 89 1024.5
20210805045232 63 307 3.0 5.0 0.00 0.00 0.00 88 1024.5
20210805044222 63 325 3.0 8.0 0.00 0.00 0.00 88 1024.6
20210805043207 63 327 2.0 5.0 0.00 0.00 0.00 89 1024.6
20210805042203 63 332 5.0 8.0 0.00 0.00 0.00 89 1024.9
20210805041154 63 339 6.0 8.0 0.00 0.00 0.00 89 1024.9
20210805040146 63 342 3.0 5.0 0.00 0.00 0.00 89 1025.0
20210805035137 63 312 3.0 5.0 0.00 0.00 0.00 90 1025.1
20210805034129 63 325 4.0 8.0 0.00 0.00 0.00 91 1025.1
20210805033125 63 324 2.0 5.0 0.00 0.00 0.00 91 1025.1